Tracking 19149 objects as of 22-Apr-2018
HD Live streaming from Space Station
objects crossing your sky now

CZ-3B DEB

Track CZ-3B DEB now!


NORAD ID: 42462
Int'l Code: 2010-042AD
Perigee: 709.1 km
Apogee: 39,445.7 km
Inclination: 24.2 °
Period: 713.4 minutes
Semi major axis: 26448 km
RCS: Unknown
Launch date: September 4, 2010
Source: People's Republic of China (PRC)
Launch site: Xichang Space Center, China (XSC)

Note: This is SATELLITE DEBRIS
aabbcc
Your satellite tracking list
Your tracking list is empty




NASA's NSSDC Master Catalog

Two Line Element Set (TLE):
1 42462U 10042AD  18106.34412459 -.00000313  00000-0 -11760-1 0  9998
2 42462  24.1922 114.3793 7323054 168.5888 228.7556  2.01838703 20230
Source of the keplerian elements: AFSPC